Location: *
(40.4000°N, 15.1200°E)
Time: 06:55:01
(UTC+00:00)

CZ-4C R/B - Pass Details

Date: 09 April 2020
Orbit: 637 x 1364 km, 63.4° (Epoch: 25 May)

Event Time Altitude Azimuth Distance (km) Brightness Sun altitude
Rises 22:40:59 0° 318° (NW) 3,976 6.3 -41.4°
Reaches altitude 10° 22:43:45 10° 311° (NW) 3,108 5.5 -41.4°
Enters shadow 22:46:58 25° 294° (WNW) 2,254 4.5 -41.5°
